When you browse on this site, cookies collect data to enhance your experience and personalize the content and advertising you see.
Visit our Privacy Policy to learn more. By continuing to use the site, you agree to this use of cookies and data.
  • In Latvia
  • List of Countries
  • For 7 days
  • Water Temperature
  • Satellite Maps
  • Weather Map
  • Weather Widgets
  • user-avatar
    Login

    Hourly Weather Novoaleksandrovka

    Today, 20 June, Thursday

    Time Temperature Precipitation Wind Pressure Humidity
    00:00 +21°C° 0 mm 3 mps 756 mmHg 68%
    01:00 +21°C° 0 mm 3 mps 756 mmHg 70%
    02:00 +20°C° 0 mm 3 mps 756 mmHg 73%
    03:00 +19°C° 0 mm 3 mps 756 mmHg 76%
    04:00 +20°C° 0 mm 3 mps 757 mmHg 73%
    05:00 +21°C° 0 mm 3 mps 757 mmHg 71%
    06:00 +22°C° 0 mm 3 mps 757 mmHg 69%
    07:00 +25°C° 0 mm 3 mps 757 mmHg 62%
    08:00 +26°C° 0 mm 4 mps 758 mmHg 56%
    09:00 +28°C° 0 mm 4 mps 758 mmHg 49%
    10:00 +29°C° 0 mm 4 mps 758 mmHg 44%
    11:00 +30°C° 0 mm 4 mps 758 mmHg 39%
    12:00 +32°C° 0 mm 5 mps 758 mmHg 34%
    13:00 +32°C° 0 mm 5 mps 757 mmHg 33%
    14:00 +32°C° 0 mm 5 mps 757 mmHg 32%
    15:00 +33°C° 0 mm 5 mps 757 mmHg 31%
    16:00 +32°C° 0 mm 5 mps 757 mmHg 34%
    17:00 +30°C° 0 mm 5 mps 757 mmHg 37%
    18:00 +30°C° 0 mm 5 mps 757 mmHg 40%
    19:00 +28°C° 0 mm 5 mps 758 mmHg 46%
    20:00 +27°C° 0 mm 4 mps 758 mmHg 51%
    21:00 +25°C° 0 mm 4 mps 758 mmHg 56%
    22:00 +23°C° 0 mm 4 mps 759 mmHg 59%
    23:00 +22°C° 0 mm 4 mps 759 mmHg 62%

    Tomorrow, 21 June, Friday

    Time Temperature Precipitation Wind Pressure Humidity
    00:00 +22°C° 0 mm 4 mps 759 mmHg 65%
    01:00 +21°C° 0 mm 4 mps 759 mmHg 68%
    02:00 +20°C° 0 mm 4 mps 759 mmHg 71%
    03:00 +20°C° 0 mm 4 mps 759 mmHg 75%
    04:00 +21°C° 0 mm 4 mps 760 mmHg 72%
    05:00 +22°C° 0 mm 4 mps 760 mmHg 70%
    06:00 +22°C° 0 mm 5 mps 760 mmHg 67%
    07:00 +25°C° 0 mm 5 mps 760 mmHg 60%
    08:00 +27°C° 0 mm 5 mps 760 mmHg 53%
    09:00 +28°C° 0 mm 6 mps 761 mmHg 45%
    10:00 +29°C° 0 mm 6 mps 760 mmHg 40%
    11:00 +32°C° 0 mm 5 mps 760 mmHg 34%
    12:00 +33°C° 0 mm 5 mps 760 mmHg 29%
    13:00 +33°C° 0 mm 5 mps 760 mmHg 28%
    14:00 +33°C° 0 mm 5 mps 760 mmHg 28%
    15:00 +34°C° 0 mm 5 mps 760 mmHg 28%
    16:00 +33°C° 0 mm 5 mps 760 mmHg 31%
    17:00 +32°C° 0 mm 5 mps 760 mmHg 33%
    18:00 +32°C° 0 mm 5 mps 760 mmHg 36%
    19:00 +29°C° 0 mm 5 mps 760 mmHg 41%
    20:00 +27°C° 0 mm 4 mps 760 mmHg 46%
    21:00 +26°C° 0 mm 4 mps 761 mmHg 50%
    22:00 +25°C° 0 mm 4 mps 761 mmHg 53%
    23:00 +23°C° 0 mm 4 mps 761 mmHg 55%

    Day after tomorrow, 22 June, Saturday

    Time Temperature Precipitation Wind Pressure Humidity
    00:00 +24°C° 0 mm 3 mps 761 mmHg 57%
    01:00 +22°C° 0 mm 3 mps 761 mmHg 60%
    02:00 +22°C° 0 mm 3 mps 761 mmHg 62%
    03:00 +21°C° 0 mm 3 mps 762 mmHg 65%
    04:00 +22°C° 0 mm 4 mps 762 mmHg 64%
    05:00 +23°C° 0 mm 4 mps 762 mmHg 62%
    06:00 +25°C° 0 mm 4 mps 762 mmHg 61%
    07:00 +26°C° 0 mm 4 mps 762 mmHg 55%
    08:00 +28°C° 0 mm 4 mps 762 mmHg 49%
    09:00 +30°C° 0 mm 4 mps 763 mmHg 43%
    10:00 +30°C° 0 mm 4 mps 762 mmHg 39%
    11:00 +31°C° 0 mm 3 mps 762 mmHg 36%
    12:00 +33°C° 0 mm 3 mps 762 mmHg 32%
    13:00 +33°C° 0 mm 3 mps 762 mmHg 30%
    14:00 +34°C° 0 mm 3 mps 762 mmHg 29%
    15:00 +34°C° 0 mm 2 mps 761 mmHg 27%
    16:00 +34°C° 0 mm 3 mps 761 mmHg 28%
    17:00 +33°C° 0 mm 3 mps 761 mmHg 29%
    18:00 +33°C° 0 mm 3 mps 761 mmHg 30%
    19:00 +30°C° 0 mm 3 mps 761 mmHg 34%
    20:00 +28°C° 0 mm 3 mps 762 mmHg 38%
    21:00 +27°C° 0 mm 3 mps 762 mmHg 42%
    22:00 +26°C° 0 mm 3 mps 762 mmHg 42%
    23:00 +25°C° 0 mm 3 mps 762 mmHg 42%

    23 June, Sunday

    Time Temperature Precipitation Wind Pressure Humidity
    00:00 +24°C° 0 mm 3 mps 762 mmHg 42%
    01:00 +24°C° 0 mm 3 mps 762 mmHg 43%
    02:00 +22°C° 0 mm 3 mps 762 mmHg 44%
    03:00 +21°C° 0 mm 3 mps 762 mmHg 46%
    04:00 +22°C° 0 mm 3 mps 762 mmHg 45%
    05:00 +24°C° 0 mm 3 mps 762 mmHg 45%
    06:00 +25°C° 0 mm 3 mps 762 mmHg 45%
    07:00 +27°C° 0 mm 3 mps 762 mmHg 41%
    08:00 +29°C° 0 mm 3 mps 762 mmHg 36%
    09:00 +32°C° 0 mm 4 mps 762 mmHg 32%
    10:00 +32°C° 0 mm 4 mps 762 mmHg 30%
    11:00 +33°C° 0 mm 4 mps 762 mmHg 29%
    12:00 +34°C° 0 mm 4 mps 762 mmHg 27%
    13:00 +35°C° 0 mm 4 mps 761 mmHg 26%
    14:00 +35°C° 0 mm 4 mps 761 mmHg 25%
    15:00 +35°C° 0 mm 3 mps 761 mmHg 24%
    16:00 +35°C° 0 mm 3 mps 760 mmHg 25%
    17:00 +35°C° 0 mm 3 mps 760 mmHg 27%
    18:00 +34°C° 0 mm 3 mps 760 mmHg 28%
    19:00 +31°C° 0 mm 3 mps 760 mmHg 31%
    20:00 +29°C° 0 mm 3 mps 760 mmHg 35%
    21:00 +28°C° 0 mm 3 mps 760 mmHg 38%
    22:00 +27°C° 0 mm 3 mps 760 mmHg 42%
    23:00 +26°C° 0 mm 4 mps 760 mmHg 45%

    24 June, Monday

    Time Temperature Precipitation Wind Pressure Humidity
    00:00 +25°C° 0 mm 4 mps 760 mmHg 49%
    01:00 +25°C° 0 mm 4 mps 760 mmHg 51%
    02:00 +24°C° 0 mm 3 mps 760 mmHg 53%
    03:00 +24°C° 0 mm 3 mps 761 mmHg 56%
    04:00 +25°C° 0 mm 3 mps 760 mmHg 55%
    05:00 +26°C° 0 mm 3 mps 760 mmHg 54%
    06:00 +26°C° 0 mm 3 mps 760 mmHg 53%
    07:00 +28°C° 0 mm 3 mps 760 mmHg 47%
    08:00 +30°C° 0 mm 3 mps 760 mmHg 40%
    09:00 +34°C° 0 mm 3 mps 760 mmHg 33%
    10:00 +34°C° 0 mm 3 mps 760 mmHg 30%
    11:00 +35°C° 0 mm 2 mps 760 mmHg 28%
    12:00 +36°C° 0 mm 2 mps 760 mmHg 25%
    13:00 +36°C° 0 mm 2 mps 759 mmHg 24%
    14:00 +37°C° 0 mm 2 mps 759 mmHg 24%
    15:00 +37°C° 0 mm 2 mps 759 mmHg 23%
    16:00 +37°C° 0 mm 2 mps 758 mmHg 25%
    17:00 +36°C° 0 mm 3 mps 758 mmHg 27%
    18:00 +36°C° 0 mm 3 mps 758 mmHg 29%
    19:00 +34°C° 0 mm 4 mps 758 mmHg 33%
    20:00 +32°C° 0 mm 5 mps 758 mmHg 38%
    21:00 +30°C° 0 mm 6 mps 759 mmHg 42%
    22:00 +29°C° 0 mm 5 mps 758 mmHg 44%
    23:00 +29°C° 0 mm 5 mps 758 mmHg 45%

    25 June, Tuesday

    Time Temperature Precipitation Wind Pressure Humidity
    00:00 +29°C° 0 mm 5 mps 758 mmHg 47%
    01:00 +28°C° 0 mm 5 mps 758 mmHg 49%
    02:00 +28°C° 0 mm 4 mps 758 mmHg 50%
    03:00 +28°C° 0 mm 4 mps 758 mmHg 52%
    04:00 +28°C° 0 mm 4 mps 758 mmHg 52%
    05:00 +28°C° 0 mm 4 mps 758 mmHg 53%
    06:00 +28°C° 0 mm 5 mps 758 mmHg 54%
    07:00 +29°C° 0 mm 5 mps 757 mmHg 52%
    08:00 +29°C° 0 mm 5 mps 757 mmHg 51%
    09:00 +30°C° 0 mm 5 mps 757 mmHg 49%
    10:00 +30°C° 0 mm 5 mps 757 mmHg 48%
    11:00 +30°C° 0 mm 6 mps 757 mmHg 47%
    12:00 +32°C° 0 mm 6 mps 757 mmHg 46%
    13:00 +30°C° 0.1 mm 6 mps 757 mmHg 49%
    14:00 +30°C° 0.1 mm 6 mps 756 mmHg 51%
    15:00 +29°C° 0.1 mm 6 mps 756 mmHg 54%
    16:00 +28°C° 0 mm 7 mps 756 mmHg 57%
    17:00 +27°C° 0 mm 7 mps 755 mmHg 60%
    18:00 +26°C° 0 mm 8 mps 755 mmHg 64%
    19:00 +24°C° 0 mm 7 mps 755 mmHg 65%
    20:00 +25°C° 0 mm 5 mps 755 mmHg 66%
    21:00 +24°C° 0 mm 3 mps 755 mmHg 67%
    22:00 +24°C° 0.1 mm 3 mps 755 mmHg 70%
    23:00 +22°C° 0.1 mm 3 mps 754 mmHg 73%
    Show more